Date String (YYYY-MM-DD hh:mm:ss) UTC,Instrument flags,absolute air pressure of the measurement (hPa),sample flow rate (lpm),inlet stack bypass flow (lpm),air temperature of the measurement (°C),ambient temperature measured by the external sensor (°C),aerosol sample conditioner tube jacket temperature (°C),OPC LED temperature (°C),internal box temperature (°C),relative humidity of the measurement (%),span deviation,mass concentration of particles derived from Lorenz-Mie calculation of OPC scattering (μg/m³),mass concentration of particles derived from Lorenz-Mie calculation of OPC scattering (μg/m³),mass concentration of particles derived from Lorenz-Mie calculation of OPC scattering (μg/m³)
DateTimeUTC,F1_M11,P_M11,Q1_M11,Q2_M11,T1_M11,T2_M11,T3_M11,T4_M11,T5_M11,U1_M11,ZSPAN_M11,X2_M11,X0_M11,X1_M11
2024-04-24 03:00:00,SystemResetWarning,0832.0,5.01,000.00,026.2,025.6,000.0,034.5,028.1,023.4,0000.0,0004.55,0010.41,0003.33
2024-04-24 03:01:00,SystemResetWarning,0831.9,5.00,000.00,026.2,025.6,000.0,034.6,028.1,023.5,0000.0,0004.62,0010.52,0003.33
2024-04-24 03:02:00,SystemResetWarning,0831.8,5.01,000.00,026.2,025.7,000.0,034.6,028.1,023.5,0000.0,0004.65,0010.60,0003.34
2024-04-24 03:03:00,SystemResetWarning,0831.9,5.00,000.00,026.2,025.7,000.0,034.6,028.1,023.5,0000.0,0004.65,0010.77,0003.35
2024-04-24 03:04:00,SystemResetWarning,0832.0,5.00,000.00,026.3,025.7,000.0,034.6,028.1,023.5,0000.0,0004.66,0010.79,0003.36
2024-04-24 03:05:00,SystemResetWarning,0832.1,4.99,000.00,026.3,025.7,000.0,034.6,028.2,023.6,0000.0,0004.70,0010.78,0003.36
2024-04-24 03:06:00,SystemResetWarning,0832.1,5.00,000.00,026.3,025.7,000.0,034.6,028.2,023.7,0000.0,0004.69,0010.71,0003.37
2024-04-24 03:07:00,SystemResetWarning,0832.0,4.99,000.00,026.3,025.7,000.0,034.7,028.1,023.8,0000.0,0004.68,0010.44,0003.37
2024-04-24 03:08:00,SystemResetWarning,0832.0,5.00,000.00,026.3,025.7,000.0,034.7,028.2,023.6,0000.0,0004.63,0010.46,0003.37
2024-04-24 03:09:00,SystemResetWarning,0832.0,5.00,000.00,026.3,025.7,000.0,034.7,028.2,023.5,0000.0,0004.61,0010.03,0003.37
2024-04-24 03:10:00,SystemResetWarning,0832.1,5.00,000.00,026.3,025.7,000.0,034.7,028.2,023.5,0000.0,0004.61,0009.75,0003.38
2024-04-24 03:11:00,SystemResetWarning,0832.2,5.00,000.00,026.3,025.7,000.0,034.7,028.2,023.8,0000.0,0004.63,0009.63,0003.38
2024-04-24 03:12:00,SystemResetWarning,0832.2,5.00,000.00,026.3,025.6,000.0,034.7,028.1,024.4,0000.0,0004.63,0009.82,0003.38
2024-04-24 03:13:00,SystemResetWarning,0832.2,5.00,000.00,026.1,023.6,000.0,034.8,026.9,024.9,0000.0,0004.60,0010.04,0003.38
2024-04-24 03:14:00,SystemResetWarning,0832.2,5.02,000.00,025.6,022.2,000.0,034.7,026.0,025.3,0000.0,0004.57,0009.88,0003.38
2024-04-24 03:15:00,SystemResetWarning,0832.2,5.00,000.00,025.3,022.2,000.0,034.6,025.9,026.1,0000.0,0004.56,0010.62,0003.38
2024-04-24 03:16:00,SystemResetWarning,0832.3,5.00,000.00,025.2,022.5,000.0,034.4,026.2,027.1,0000.0,0004.53,0010.91,0003.38
2024-04-24 03:17:00,SystemResetWarning,0832.3,5.01,000.00,025.2,022.9,000.0,034.3,026.5,027.8,0000.0,0004.55,0011.53,0003.39
2024-04-24 03:18:00,SystemResetWarning,0832.2,4.99,000.00,025.2,023.2,000.0,034.2,026.7,027.6,0000.0,0004.54,0011.79,0003.40
2024-04-24 03:19:00,SystemResetWarning,0832.2,5.00,000.00,025.2,023.5,000.0,034.1,026.9,027.5,0000.0,0004.53,0011.67,0003.41
2024-04-24 03:20:00,SystemResetWarning,0832.2,5.00,000.00,025.3,023.8,000.0,034.1,027.0,027.6,0000.0,0004.55,0011.49,0003.41
2024-04-24 03:21:00,SystemResetWarning,0832.1,5.00,000.00,025.3,024.0,000.0,034.0,027.1,027.6,0000.0,0004.55,0011.48,0003.41
2024-04-24 03:22:00,SystemResetWarning,0832.1,5.00,000.00,025.3,024.2,000.0,034.0,027.1,027.5,0000.0,0004.61,0011.72,0003.43
2024-04-24 03:23:00,SystemResetWarning,0832.1,4.99,000.00,025.4,024.4,000.0,034.0,027.2,027.1,0000.0,0004.62,0011.71,0003.44
2024-04-24 03:24:00,SystemResetWarning,0832.1,5.00,000.00,025.4,024.5,000.0,034.0,027.3,026.6,0000.0,0004.63,0011.84,0003.45
2024-04-24 03:25:00,SystemResetWarning,0832.1,5.00,000.00,025.4,024.6,000.0,034.0,027.3,026.2,0000.0,0004.69,0011.96,0003.46
2024-04-24 03:26:00,SystemResetWarning,0832.1,4.99,000.00,025.5,024.7,000.0,034.0,027.4,025.8,0000.0,0004.70,0011.45,0003.45
2024-04-24 03:27:00,SystemResetWarning,0832.1,5.00,000.00,025.5,024.8,000.0,034.0,027.4,025.3,0000.0,0004.70,0011.12,0003.45
2024-04-24 03:28:00,SystemResetWarning,0832.1,5.01,000.00,025.5,024.9,000.0,034.0,027.5,025.1,0000.0,0004.68,0010.57,0003.45
2024-04-24 03:29:00,SystemResetWarning,0832.1,5.00,000.00,025.6,025.0,000.0,034.0,027.5,025.6,0000.0,0004.68,0010.37,0003.43
2024-04-24 03:30:00,SystemResetWarning,0832.2,5.00,000.00,025.6,025.0,000.0,034.0,027.5,025.5,0000.0,0004.73,0010.48,0003.43
2024-04-24 03:31:00,SystemResetWarning,0832.2,5.00,000.00,025.6,025.1,000.0,034.0,027.6,025.4,0000.0,0004.75,0010.49,0003.43
2024-04-24 03:32:00,SystemResetWarning,0832.2,4.99,000.00,025.7,025.1,000.0,034.0,027.6,025.2,0000.0,0004.72,0010.38,0003.42
2024-04-24 03:33:00,SystemResetWarning,0832.2,4.99,000.00,025.7,025.2,000.0,034.1,027.6,025.1,0000.0,0004.69,0010.26,0003.39
2024-04-24 03:34:00,SystemResetWarning,0832.2,5.00,000.00,025.7,025.2,000.0,034.1,027.7,024.6,0000.0,0004.64,0010.97,0003.38
2024-04-24 03:35:00,SystemResetWarning,0832.2,5.01,000.00,025.8,025.2,000.0,034.1,027.7,024.3,0000.0,0004.63,0010.39,0003.36
2024-04-24 03:36:00,SystemResetWarning,0832.2,5.01,000.00,025.8,025.3,000.0,034.1,027.7,024.1,0000.0,0004.55,0010.58,0003.35
2024-04-24 03:37:00,SystemResetWarning,0832.2,5.00,000.00,025.8,025.3,000.0,034.1,027.7,024.2,0000.0,0004.52,0010.75,0003.35
2024-04-24 03:38:00,SystemResetWarning,0832.2,4.99,000.00,025.8,025.3,000.0,034.2,027.8,024.3,0000.0,0004.49,0010.44,0003.34
2024-04-24 03:39:00,SystemResetWarning,0832.2,4.99,000.00,025.9,025.3,000.0,034.2,027.8,023.4,0000.0,0004.45,0010.47,0003.32
2024-04-24 03:40:00,SystemResetWarning,0832.2,5.00,000.00,025.9,025.4,000.0,034.2,027.8,023.9,0000.0,0004.39,0010.50,0003.31
2024-04-24 03:41:00,SystemResetWarning,0832.2,5.02,000.00,025.9,025.4,000.0,034.2,027.8,024.1,0000.0,0004.36,0010.70,0003.30
2024-04-24 03:42:00,SystemResetWarning,0832.2,5.00,000.00,025.9,025.4,000.0,034.2,027.9,023.9,0000.0,0004.32,0010.93,0003.29
2024-04-24 03:43:00,SystemResetWarning,0832.2,4.99,000.00,025.9,025.4,000.0,034.3,027.9,025.1,0000.0,0004.33,0011.00,0003.29
2024-04-24 03:44:00,SystemResetWarning,0832.2,5.00,000.00,026.0,025.5,000.0,034.3,027.9,025.4,0000.0,0004.24,0010.89,0003.29
2024-04-24 03:45:00,SystemResetWarning,0832.2,4.99,000.00,026.0,025.5,000.0,034.3,027.9,025.3,0000.0,0004.26,0010.14,0003.30
2024-04-24 03:46:00,SystemResetWarning,0832.2,4.99,000.00,026.0,025.5,000.0,034.3,027.9,024.5,0000.0,0004.28,0010.24,0003.31
2024-04-24 03:47:00,SystemResetWarning,0832.2,5.00,000.00,026.0,025.5,000.0,034.3,027.9,024.4,0000.0,0004.31,0010.26,0003.30
2024-04-24 03:48:00,SystemResetWarning,0832.2,5.00,000.00,026.0,025.5,000.0,034.4,027.9,024.3,0000.0,0004.34,0009.88,0003.30
2024-04-24 03:49:00,SystemResetWarning,0832.3,5.00,000.00,026.1,025.5,000.0,034.4,028.0,024.8,0000.0,0004.35,0010.31,0003.31
2024-04-24 03:50:00,SystemResetWarning,0832.2,5.00,000.00,026.1,025.5,000.0,034.4,028.0,024.8,0000.0,0004.39,0010.43,0003.31
2024-04-24 03:51:00,SystemResetWarning,0832.3,5.00,000.00,026.1,025.5,000.0,034.4,028.0,024.3,0000.0,0004.40,0010.09,0003.31
2024-04-24 03:52:00,SystemResetWarning,0832.3,5.00,000.00,026.1,025.5,000.0,034.4,028.0,023.6,0000.0,0004.40,0009.90,0003.31
2024-04-24 03:53:00,SystemResetWarning,0832.3,4.99,000.00,026.1,025.5,000.0,034.5,028.0,024.0,0000.0,0004.36,0009.44,0003.29
2024-04-24 03:54:00,SystemResetWarning,0832.3,4.99,000.00,026.1,025.6,000.0,034.5,028.0,024.9,0000.0,0004.35,0009.40,0003.28
2024-04-24 03:55:00,SystemResetWarning,0832.3,5.00,000.00,026.1,025.6,000.0,034.5,028.0,025.6,0000.0,0004.39,0009.44,0003.28
2024-04-24 03:56:00,SystemResetWarning,0832.3,5.01,000.00,026.2,025.6,000.0,034.5,028.0,024.7,0000.0,0004.40,0009.47,0003.26
2024-04-24 03:57:00,SystemResetWarning,0832.3,5.00,000.00,026.2,025.6,000.0,034.5,028.1,024.1,0000.0,0004.42,0009.69,0003.26
2024-04-24 03:58:00,SystemResetWarning,0832.3,4.99,000.00,026.2,025.6,000.0,034.5,028.1,023.5,0000.0,0004.35,0009.65,0003.24
2024-04-24 03:59:00,SystemResetWarning,0832.2,4.99,000.00,026.2,025.6,000.0,034.6,028.1,023.6,0000.0,0004.34,0009.64,0003.23
